Regional Weather Roundup
Issued by NWS

Home | Current Version | Previous Version | Text Only | Print | Product List | Glossary On
Versions: 1 2 3 4 5 6 7 8 9 10 11 12 13 14 15 16 17 18 19 20 21 22 23 24 25 26 27 28 29 30 31 32 33 34 35 36 37 38 39 40 41 42 43 44 45 46 47 48 49 50
000
ASUS43 KDTX 280401
RWRMI
MICHIGAN HOURLY REGIONAL WEATHER ROUNDUP
NATIONAL WEATHER SERVICE DETROIT/PONTIAC MI
1200 AM EDT FRI APR 28 2017

NOTE: "FAIR" INDICATES FEW OR NO CLOUDS BELOW 12,000 FEET WITH NO
SIGNIFICANT WEATHER AND/OR OBSTRUCTION TO VISIBILITY.

MIZ047>049-052>055-059>063-066>070-074>076-081>083-280500-
SOUTHEAST LOWER MICHIGAN

CITY           SKY/WX    TMP DP  RH WIND       PRES   REMARKS
ADRIAN         CLOUDY    50  41  71 W14G21    29.84S
ALMA           CLOUDY    45  38  78 SW14G22   29.79R
ANN ARBOR      CLOUDY    50  39  66 SW15      29.82R
BAD AXE        CLOUDY    47  35  62 W18G29    29.78R
CARO           CLOUDY    48  38  68 SW15G24   29.78R
DETROIT CITY   CLOUDY    52  39  61 W17G25    29.83R
DETROIT        CLOUDY    52  39  61 SW17      29.84R
FLINT          CLOUDY    49  39  68 W9        29.81R
GROSSE ILE     CLOUDY    52  41  65 W14G21    29.83R
HILLSDALE      CLOUDY    46  37  71 SW12      29.82S
HOWELL         CLOUDY    49  36  62 SW12G21   29.81R

CITY           SKY/WX    TMP DP  RH WIND       PRES   REMARKS
JACKSON        CLOUDY    49  38  65 SW17G23   29.81R
LAMBERTVILLE   CLOUDY    51  42  69 W8G24     29.85R
LANSING        CLOUDY    48  37  65 SW16G23   29.80R
LAPEER         CLOUDY    49  38  65 W12G22    29.80R
MASON          CLOUDY    48  39  70 SW12      29.80S
MONROE         CLOUDY    52  42  67 W20G30    29.84R
MT. CLEMENS    CLOUDY    51  39  62 W12G24    29.81R
PONTIAC        CLOUDY    49  36  61 SW17G29   29.81R
PORT HOPE        N/A     49  37  63 W10G20    29.75R
PORT HURON     CLOUDY    52  37  58 SW8       29.80R
TRI CITIES     CLOUDY    47  39  74 W18G28    29.79R
MIDLAND        CLOUDY    46  36  67 SW12G21   29.77R
TROY           CLOUDY    51  35  54 SW16G23   29.84R
SAGINAW HB     CLOUDY    48  34  57 SW18G28   29.78R
$$
MIZ043>046-050>051-056>058-064>065-071>073-077>080-280500-
SOUTHWEST LOWER MICHIGAN

CITY           SKY/WX    TMP DP  RH WIND       PRES   REMARKS
BATTLE CREEK   CLOUDY    48  40  73 SW12      29.82R
BENTON HARBOR  CLOUDY    46  37  71 SW14G23   29.85R
BIG RAPIDS     CLOUDY    41  36  84 SW10G18   29.75R
FREMONT        CLOUDY    41  37  87 SW12G22   29.77R
HOLLAND        CLOUDY    44  36  73 W18G24    29.82R
GRAND RAPIDS   CLOUDY    44  39  82 W16G24    29.80R
IONIA          CLOUDY    46  38  74 SW10      29.79R
KALAMAZOO      CLOUDY    48  38  68 W13       29.83R
LUDINGTON      CLOUDY    41  39  92 SW17      29.74R
MARSHALL       CLOUDY    48  38  68 SW10      29.81S
MOUNT PLEASANT MOCLDY    43  37  80 SW10G16   29.77R
MUSKEGON       CLOUDY    43  38  82 SW17      29.80R
SOUTH HAVEN    CLOUDY    44  38  78 W10G17    29.84R
$$
MIZ016>042-280500-
NORTHERN LOWER MICHIGAN

CITY           SKY/WX    TMP DP  RH WIND       PRES   REMARKS
ALPENA         CLOUDY    44  32  62 SW7G18    29.71R
BEAVER ISLAND  CLOUDY    37  34  87 SW14      29.68R WCI  29
BELLAIRE       CLOUDY    42  33  70 SW7       29.71R
CADILLAC       CLOUDY    40  37  87 SW14G22   29.70R WCI  32
CHARLEVOIX     CLOUDY    40  36  83 SW12G18   29.72R WCI  33
FRANKFORT      CLOUDY    40  37  90 SW9       29.71R WCI  34
GAYLORD        CLOUDY    41  31  67 SW12      29.68R
GRAYLING       CLOUDY    41  33  73 SW8       29.71R
HARBOR SPRINGS CLOUDY    38  33  85 W7        29.69R WCI  32
HOUGHTON LAKE  CLOUDY    42  35  76 SW16G23   29.72R
MANISTEE       CLOUDY    42  38  85 SW15G23   29.73R
OSCODA         CLOUDY    47  33  59 SW20G26   29.73R
PELLSTON       CLOUDY    39  31  72 W12G17    29.69R WCI  32
ROGERS CITY    CLOUDY    42  32  68 W10       29.70R
TRAVERSE CITY  CLOUDY    43  34  70 VRB6G18   29.70R
$$
MIZ007>008-015-280500-
EASTERN UPPER MICHIGAN

CITY           SKY/WX    TMP DP  RH WIND       PRES   REMARKS
KINROSS        CLOUDY    36  30  79 W9G21     29.66R WCI  29
MACKINAC ISLAN CLOUDY    37  37 100 W15G23    29.66R WCI  28
NEWBERRY       CLOUDY    33  32  96 SW8       29.64R WCI  26
S. S. MARIE    LGT SNOW  34  32  92 W5        29.65R FOG     WCI  30
MUNISING         N/A     34  32  92 SW9       29.63R WCI  27
$$
MIZ004>006-011>014-085-280500-
CENTRAL UPPER MICHIGAN

CITY           SKY/WX    TMP DP  RH WIND       PRES   REMARKS
MANISTIQUE     CLOUDY    34  33  96 W5        29.65R WCI  30
ESCANABA       CLOUDY    35  33  92 SW5       29.67R WCI  31
MENOMINEE      CLOUDY    37  30  75 VRB6      29.71R WCI  32
SAWYER-GWINN   CLOUDY    30  27  88 W10       29.63R WCI  21
$$
MIZ001>003-009>011-084-280500-
WESTERN UPPER MICHIGAN

CITY           SKY/WX    TMP DP  RH WIND       PRES   REMARKS
IRON MOUNTAIN  CLOUDY    32  25  75 W10G17    29.64R WCI  24
HOUGHTON       FLURRIES  29  24  82 W17       29.57R WCI  17
COPPER HARBOR    N/A     30  25  81 VRB7      29.58R WCI  23
IRONWOOD       CLOUDY    27  24  89 W13       29.65R WCI  16
$$

ABBREVIATIONS USED IN REMARKS
   TC - TEMPERATURE IN CELSIUS
  WCI - WIND CHILL INDEX
   HX - HEAT INDEX
  VSB - VISIBILITY




USA.gov is the U.S. government's official web portal to all federal, state and local government web resources and services.